CZ-3C DEB, 39341

Orbit data source: Space-Track

CZ-3C DEB, 39341 is space debris in HEO originally from a launch on Sun, 31 Oct 2010 UTC launched from the Xichang Space Center, China (XSC). Debris objects in space refer to the collection of defunct objects orbiting the Earth. Examples of debris include non-operational satellites, rocket bodies, and fragments generated from explosions, collisions, or faulty payload assembly.

Loading next visibility...
Identifier
39341, 2010-057F
Orbit
HEO
Country
Flag of CNCN / PRC
Related business
Manufacturer
CALT
Mission
Spacecraft
Bus & Motor
Unknown
Mass
Unknown
Launch date (UTC)
2010-10-31 (16 years ago)
Launch vehicle
Unknown
Launch site
Xichang Space Center, China (XSC)
Object type
Payload
Rocket body
Debris
Shape & HBR
Unknown shape, 0.3 m
Radar Cross Section
Medium (>0.1 m² and <1 m²)

Expand to show TLE details & history
Last TLE update: 10 hours ago

TLE from 10 hours ago
0 CZ-3C DEB
1 39341U 10057F   26264.21748961  .00000347  00000-0  95754-3 0  9998
2 39341  19.2045 280.0177 6665448 114.9620 325.7658  2.97877483122613
Epoch: 2026-09-21T05:13Z
TLE epoch observation values (Epoch: 2026-09-21T05:13:11.102Z)
Latitude
-0.00002°
Longitude
-158.36832°
Altitude
9,374.234 km
Speed
5.574 km/s
True Right ascension
18h 40m 06s
True Declination
0° 00' 00"
Sunlit
Object was in daylight at epoch
Visualization orbit readout
Latitude
Unknown
Longitude
Unknown
Altitude
Unknown
Speed
Unknown
Apparent Right ascension
Unknown
Apparent Declination
Unknown
Sunlit
N/A
Visualization observer readout
Local Sidereal Time
08:06:30
Azimuth
Unknown
Elevation
Unknown
Doppler factor
Unknown
Orbital elements
Apogee altitude
27,632.928 km
Perigee altitude
427.06 km
Semi-major axis
20,408.131 km
Eccentricity
0.66654
Inclination
19.2045°
RAAN
280.0177°
Arg. of periapsis
114.962°
True anomaly
244.99179°
Mean anomaly
325.7658°
Eccentric anomaly
289.84312°
Mean motion
0.74445 °/min
Orbital period
483.58 mins
BSTAR
0.00095754
Loading maneuver chart data...
Computing Atmospheric mass density...
Loading historical data...
Loading historical data...
Loading historical data...
Loading historical data...
Loading historical data...
Loading historical data...
Loading historical data...

Documentation

Showing up to 5 results
|